Weather History for KEDE - March, 2014

Change the Weather History Date:

Friday, March 28, 2014

  Actual Average Record
Temperature  
Mean Temperature 58 °F -  
Max Temperature 72 °F 66 °F 85 °F (1945)
Min Temperature 43 °F 43 °F 24 °F (2001)
Degree Days  
Heating Degree Days 8    
Growing Degree Days 8 (Base 50)    
Moisture  
Dew Point 51 °F    
Average Humidity 76    
Maximum Humidity 99    
Minimum Humidity 49    
Precipitation  
Precipitation 0.09 in - - ()
Sea Level Pressure  
Sea Level Pressure 30.22 in    
Wind  
Wind Speed 9 mph (South)    
Max Wind Speed 20 mph    
Max Gust Speed 25 mph    
Visibility 10 miles    
Events      
Averages and records for this station are not official NWS values.
T = Trace of Precipitation, MM = Missing Value Source: NWS Daily Summary

Daily Weather History Graph

Daily Weather History Graph

Search for Another Location

Airport or City:

Trip Planner

Search our weather history database for the weather conditions in past years. The results will help you decide how hot, cold, wet, or windy it might be!

Date:

Astronomy

Mar. 28, 2014 Rise Set
Actual Time 6:58 AM EDT 7:24 PM EDT
Civil Twilight 6:32 AM EDT 7:50 PM EDT
Nautical Twilight 6:02 AM EDT 8:20 PM EDT
Astronomical Twilight 5:31 AM EDT 8:51 PM EDT
Moon 5:23 AM EDT (3/28) 5:22 PM EDT (3/28)
Length of Visible Light 13h 17m
Length of Day
12h 26m
Waning Crescent, 6% of the Moon is Illuminated
Mar 28
Waning Crescent
Mar 30
New
Apr 7
First Quarter
Apr 15
Full
Apr 22
Last Quarter

Hourly Weather History & Observations

Time (EDT) Temp. Windchill Dew Point Humidity Pressure Visibility Wind Dir Wind Speed Gust Speed Precip Events Conditions
12:15 AM 44.2 °F 41.0 °F 40.1 °F 85% 30.36 in 10.0 mi South 5.8 mph - N/A   Mostly Cloudy
12:35 AM 44.1 °F 40.8 °F 40.3 °F 87% 30.34 in 10.0 mi South 5.8 mph - N/A   Scattered Clouds
12:55 AM 44.1 °F 40.8 °F 40.5 °F 87% 30.33 in 10.0 mi South 5.8 mph - N/A   Scattered Clouds
1:15 AM 43.0 °F 39.5 °F 40.1 °F 90% 30.32 in 10.0 mi South 5.8 mph - N/A   Scattered Clouds
1:35 AM 43.2 °F 39.7 °F 40.5 °F 90% 30.32 in 10.0 mi South 5.8 mph - N/A   Clear
1:55 AM 43.7 °F 40.3 °F 41.0 °F 90% 30.30 in 10.0 mi SSE 5.8 mph - N/A   Clear
2:15 AM 44.2 °F 41.0 °F 41.9 °F 91% 30.29 in 10.0 mi SSE 5.8 mph - N/A   Clear
2:35 AM 44.6 °F 43.1 °F 42.4 °F 92% 30.29 in 10.0 mi South 3.5 mph - N/A   Scattered Clouds
2:55 AM 45.7 °F 42.0 °F 43.3 °F 92% 30.29 in 10.0 mi South 6.9 mph - N/A   Scattered Clouds
3:15 AM 47.1 °F - 44.1 °F 89% 30.28 in 10.0 mi SSW 6.9 mph - N/A   Mostly Cloudy
3:35 AM 46.4 °F 43.5 °F 43.3 °F 89% 30.28 in 10.0 mi South 5.8 mph - N/A   Mostly Cloudy
3:55 AM 47.1 °F - 44.2 °F 90% 30.28 in 10.0 mi South 8.1 mph - N/A   Scattered Clouds
4:15 AM 46.6 °F - 43.7 °F 90% 30.28 in 10.0 mi South 6.9 mph - N/A   Scattered Clouds
4:35 AM 46.6 °F - 43.9 °F 90% 30.28 in 10.0 mi SSW 4.6 mph - N/A   Scattered Clouds
4:55 AM 47.3 °F - 44.6 °F 90% 30.28 in 10.0 mi South 5.8 mph - N/A   Mostly Cloudy
5:15 AM 47.3 °F - 44.6 °F 90% 30.27 in 10.0 mi South 6.9 mph - N/A   Scattered Clouds
5:35 AM 47.3 °F - 44.8 °F 91% 30.27 in 10.0 mi South 6.9 mph - N/A   Scattered Clouds
5:55 AM 48.0 °F - 45.0 °F 89% 30.27 in 10.0 mi South 8.1 mph - N/A   Scattered Clouds
6:15 AM 47.8 °F - 45.0 °F 90% 30.27 in 10.0 mi South 6.9 mph - N/A   Clear
6:35 AM 48.2 °F - 45.5 °F 90% 30.26 in 10.0 mi South 8.1 mph - N/A   Clear
6:55 AM 50.0 °F - 46.4 °F 87% 30.26 in 10.0 mi South 8.1 mph - N/A   Clear
7:15 AM 49.6 °F - 45.9 °F 87% 30.26 in 10.0 mi South 8.1 mph - N/A   Clear
7:35 AM 50.4 °F - 46.4 °F 86% 30.26 in 10.0 mi South 8.1 mph - N/A   Clear
8:15 AM 52.9 °F - 47.8 °F 83% 30.26 in 10.0 mi South 9.2 mph - N/A   Clear
8:35 AM 54.5 °F - 48.6 °F 80% 30.25 in 10.0 mi South 10.4 mph - N/A   Clear
8:55 AM 56.3 °F - 49.3 °F 77% 30.25 in 10.0 mi South 10.4 mph - N/A   Clear
9:15 AM 58.5 °F - 49.8 °F 73% 30.25 in 10.0 mi South 11.5 mph - N/A   Clear
9:35 AM 60.8 °F - 50.9 °F 70% 30.26 in 10.0 mi SSW 10.4 mph - N/A   Clear
9:55 AM 62.8 °F - 51.3 °F 66% 30.27 in 10.0 mi SSW 10.4 mph - N/A   Clear
10:15 AM 64.2 °F - 51.4 °F 63% 30.26 in 10.0 mi SSW 15.0 mph - N/A   Clear
10:35 AM 64.6 °F - 51.6 °F 63% 30.26 in 10.0 mi SSW 11.5 mph 18.4 mph N/A   Clear
10:55 AM 67.1 °F - 51.1 °F 56% 30.25 in 10.0 mi SSW 15.0 mph 23.0 mph N/A   Clear
11:15 AM 67.3 °F - 51.1 °F 56% 30.26 in 10.0 mi SSW 16.1 mph - N/A   Scattered Clouds
11:35 AM 67.5 °F - 51.4 °F 56% 30.25 in 10.0 mi SSW 16.1 mph 23.0 mph N/A   Mostly Cloudy
11:55 AM 68.9 °F - 51.3 °F 53% 30.24 in 10.0 mi SSW 17.3 mph 25.3 mph N/A   Scattered Clouds
12:15 PM 69.3 °F - 51.1 °F 52% 30.22 in 10.0 mi SSW 19.6 mph 23.0 mph N/A   Mostly Cloudy
12:35 PM 69.8 °F - 51.1 °F 51% 30.21 in 10.0 mi SSW 17.3 mph 24.2 mph N/A   Mostly Cloudy
12:55 PM 71.1 °F - 51.4 °F 50% 30.20 in 10.0 mi SSW 16.1 mph 23.0 mph N/A   Overcast
1:15 PM 70.9 °F - 51.4 °F 50% 30.20 in 10.0 mi SSW 13.8 mph 21.9 mph N/A   Mostly Cloudy
1:35 PM 71.1 °F - 51.3 °F 49% 30.19 in 10.0 mi SSW 16.1 mph 21.9 mph N/A   Mostly Cloudy
1:55 PM 72.1 °F - 52.2 °F 49% 30.18 in 10.0 mi SSW 15.0 mph 19.6 mph N/A   Mostly Cloudy
2:15 PM 72.5 °F - 52.7 °F 50% 30.17 in 10.0 mi South 16.1 mph 20.7 mph N/A   Scattered Clouds
2:35 PM 71.2 °F - 52.2 °F 51% 30.16 in 10.0 mi SSW 16.1 mph 21.9 mph N/A   Mostly Cloudy
2:55 PM 70.7 °F - 52.9 °F 53% 30.16 in 10.0 mi SSW 13.8 mph 20.7 mph N/A   Mostly Cloudy
3:15 PM 70.2 °F - 53.6 °F 56% 30.15 in 10.0 mi SSW 15.0 mph 24.2 mph N/A   Overcast
3:35 PM 68.9 °F - 54.1 °F 59% 30.15 in 10.0 mi SSW 13.8 mph - N/A   Mostly Cloudy
3:55 PM 69.3 °F - 54.5 °F 59% 30.14 in 10.0 mi South 16.1 mph 20.7 mph N/A   Mostly Cloudy
4:15 PM 68.5 °F - 54.0 °F 60% 30.14 in 10.0 mi South 16.1 mph 24.2 mph N/A   Overcast
4:35 PM 67.8 °F - 54.1 °F 62% 30.14 in 10.0 mi SSW 16.1 mph 21.9 mph N/A   Overcast
4:55 PM 67.3 °F - 54.5 °F 63% 30.13 in 10.0 mi SSW 16.1 mph - N/A   Overcast
5:15 PM 67.3 °F - 54.7 °F 64% 30.14 in 10.0 mi South 18.4 mph 24.2 mph N/A   Overcast
5:35 PM 66.7 °F - 54.7 °F 65% 30.15 in 10.0 mi SSW 19.6 mph 23.0 mph N/A   Overcast
5:55 PM 66.7 °F - 55.2 °F 66% 30.15 in 10.0 mi SSW 17.3 mph - N/A   Overcast
6:15 PM 66.2 °F - 55.4 °F 68% 30.16 in 10.0 mi SSW 12.7 mph - N/A   Overcast
6:35 PM 65.5 °F - 55.0 °F 69% 30.16 in 10.0 mi South 11.5 mph - N/A   Overcast
6:55 PM 65.8 °F - 55.4 °F 69% 30.16 in 10.0 mi SSW 13.8 mph - N/A   Overcast
7:15 PM 65.5 °F - 55.4 °F 70% 30.17 in 10.0 mi SSW 12.7 mph - N/A   Overcast
7:35 PM 65.3 °F - 55.4 °F 70% 30.17 in 10.0 mi SSW 12.7 mph 17.3 mph N/A   Overcast
7:55 PM 64.9 °F - 55.9 °F 73% 30.18 in 10.0 mi SSW 13.8 mph 20.7 mph N/A   Overcast
8:15 PM 64.2 °F - 56.3 °F 75% 30.19 in 10.0 mi SSW 15.0 mph 19.6 mph N/A   Overcast
8:35 PM 61.3 °F - 57.9 °F 89% 30.19 in 3.0 mi SW 12.7 mph - N/A   Drizzle
8:55 PM 60.8 °F - 59.0 °F 94% 30.20 in 4.0 mi SSW 11.5 mph - N/A   Drizzle
9:15 PM 60.8 °F - 59.5 °F 96% 30.19 in 4.0 mi South 13.8 mph - 0.03 in   Drizzle
9:35 PM 60.3 °F - 59.4 °F 97% 30.19 in 5.0 mi South 10.4 mph - 0.04 in   Light Drizzle
9:55 PM 59.9 °F - 59.0 °F 97% 30.19 in 10.0 mi South 9.2 mph - 0.04 in   Overcast
10:15 PM 59.5 °F - 59.0 °F 98% 30.19 in 10.0 mi South 8.1 mph - N/A   Overcast
10:35 PM 59.9 °F - 59.0 °F 97% 30.18 in 7.0 mi South 8.1 mph - N/A   Overcast
10:55 PM 59.9 °F - 59.4 °F 98% 30.18 in 10.0 mi SSE 9.2 mph - N/A   Overcast
11:15 PM 59.5 °F - 59.2 °F 99% 30.18 in 10.0 mi South 8.1 mph - N/A   Overcast
11:35 PM 59.5 °F - 59.2 °F 99% 30.18 in 7.0 mi South 9.2 mph - N/A   Overcast
11:55 PM 59.7 °F - 59.5 °F 99% 30.18 in 3.0 mi South 8.1 mph - 0.05 in   Heavy Drizzle